Regional Weather Roundup
Issued by NWS State College, PA

Home | Current Version | Previous Version | Text Only | Print | Product List | Glossary On
Versions: 1 2 3 4 5 6 7 8 9 10 11 12 13 14 15 16 17 18 19 20 21 22 23 24 25 26 27 28 29 30 31 32 33 34 35 36 37 38 39 40 41 42 43 44 45 46 47 48 49 50
000
ASUS41 KCTP 300803
RWRCTP

REGIONAL WEATHER ROUNDUP
NATIONAL WEATHER SERVICE STATE COLLEGE PA
400 AM EDT SUN AUG 30 2015

Note: "fair" indicates few or no clouds below 12,000 feet with no
significant weather and/or obstructions to visibility.

* = STATION THAT DOES NOT REPORT PRECIPITATION /E.G. RAIN...SNOW...ETC/
    THUNDER OR FOG.

PAZ002>004-007>009-013>016-020>023-029>032-300900-
WESTERN PENNSYLVANIA

CITY           SKY/WX    TMP DP  RH WIND       PRES   REMARKS
ERIE           CLOUDY    67  64  90 S5        30.06S
MEADVILLE      LGT RAIN  66  63  90 CALM      30.09S FOG
FRANKLIN*      CLOUDY    64  63  94 CALM      30.10F
NEW CASTLE     FOG       67  67 100 W3        30.10R THUNDER VSB 1/4
BEAVER COUNTY  NOT AVBL
BUTLER*        PTCLDY    66  61  82 CALM      30.10F
PITTSBURGH INT MOCLDY    69  62  78 S3        30.08F
PITTSBURGH     PTCLDY    67  58  72 S8        30.08F
INDIANA*       CLOUDY    64  61  88 CALM      30.14S
LATROBE        NOT AVBL
WASHINGTON CO* PTCLDY    63  61  94 CALM      30.10S
$$

PAZ004>006-010>012-017>019-024>028-033>037-041-042-045-046-049>053-300900-
CENTRAL PENNSYLVANIA

CITY           SKY/WX    TMP DP  RH WIND       PRES   REMARKS
BRADFORD       CLOUDY    60  58  92 SE3       30.12F FOG
DUBOIS         LGT RAIN  65  61  87 NE3       30.11S
CLEARFIELD     PTCLDY    58  56  93 CALM      30.12S FOG
JOHNSTOWN      CLEAR     64  57  78 SW6       30.15S
ALTOONA        CLEAR     58  55  90 CALM      30.13R
STATE COLLEGE  MOCLDY    60  59  96 CALM      30.10S
WILLIAMSPORT   MOCLDY    61  58  90 CALM      30.08S
SELINSGROVE    CLEAR     58  57  97 CALM      30.09S FOG
FT INDIANTOWN  CLEAR     61  61  98 NE2       30.09S FOG
CAPITAL CITY   CLEAR     66  63  90 CALM      30.09S
HARRISBURG     PTCLDY    68  64  87 SE6       30.08S
YORK           CLEAR     65  62  90 CALM      30.09S
$$

PAZ038>040-043-044-047-048-054-055-060>062-067>071-300900-
EASTERN PENNSYLVANIA

CITY           SKY/WX    TMP DP  RH WIND       PRES   REMARKS
SCRANTON       CLEAR     63  58  83 E6        30.09F
MOUNT POCONO   CLEAR     59  57  93 NW3       30.14S FOG
ALLENTOWN      CLEAR     62  60  93 CALM      30.10R FOG
QUAKERTOWN*    SUNNY     61  59  94 CALM      30.11S
READING        CLEAR     67  62  84 CALM      30.08S
LANCASTER      CLEAR     63  62  97 E3        30.10S FOG
COATESVILLE    SUNNY     64  64 100 CALM      30.12S FOG
POTTSTOWN      CLEAR     63  62  97 CALM      30.12S
BLUE BELL      CLEAR     68  64  88 SW3       30.10S
DOYLESTOWN     PTCLDY    65  62  90 CALM      30.10S
WILLOW GROVE   NOT AVBL
NORTH PHILA    MOCLDY    72  60  66 CALM      30.12R
PHILADELPHIA   MOCLDY    71  61  70 S6        30.11S
$$


USA.gov is the U.S. government's official web portal to all federal, state and local government web resources and services.